Flag for Australia Weather past 2 weeks in Darwin, Northern Territory, Australia

Now
81 °F

Clear.


Feels Like: 84 °F
Forecast: 78 / 96 °F
Wind: 8 mph from Northeast

Location: Darwin Airport

Current Time: Oct 20, 2014 at 11:10:31 PM

Latest Report: Oct 20, 2014 at 10:30 PM


Visibility: 10 mi

Pressure: 29.92 "Hg

Humidity: 70%

Dew point: 70 °F

Location of DarwinLocation

Historic Weather in Darwin — Graph

°F

Darwin temperature yesterday

Maximum temperature yesterday: 93 °F (at 12:00 PM)
Minimum temperature yesterday: 77 °F (at 2:00 AM)
Average temperature yesterday: 85 °F

Past Weeks' High & Low Weather Summary

 TemperatureHumidityPressure
High97 °F (Oct 11, 4:30 PM)94% (Oct 7, 6:30 AM)29.98 "Hg (Oct 7, 6:30 AM)
Low73 °F (Oct 7, 6:30 AM)14% (Oct 17, 12:30 PM)29.77 "Hg (Oct 6, 4:00 PM)
Average84 °F65%29.87 "Hg
* Reported Oct 5 9:30 PM — Oct 20 9:30 PM, Darwin, Weather by CustomWeather, © 2014

Note: Actual official high and low records may vary slightly from our data, if they occured in-between our weather recording intervals... More about our weather records

Advertising

Darwin weather history for previous 24 hours

 ConditionsComfort  
Time TempWeatherWind HumidityBarometerVisibility
9:30 PM
Oct 20
81 °FClear.8 mph58%29.92 "Hg10 mi
9:00 PM79 °FClear.6 mph70%29.92 "Hg10 mi
8:30 PM81 °FClear.6 mph62%29.89 "Hg10 mi
8:00 PM82 °FClear.6 mph58%29.89 "Hg10 mi
7:30 PM84 °FClear.6 mph51%29.86 "Hg10 mi
7:00 PM86 °FSunny.7 mph46%29.86 "Hg10 mi
6:30 PM88 °FSunny.8 mph40%29.83 "Hg10 mi
6:00 PM90 °FSunny.10 mph36%29.83 "Hg10 mi
5:30 PM90 °FSunny.13 mph33%29.83 "Hg10 mi
5:00 PM90 °FSunny.16 mph36%29.80 "Hg10 mi
4:30 PM91 °FSunny.18 mph36%29.80 "Hg10 mi
4:00 PM90 °FSunny.16 mph41%29.80 "Hg10 mi
3:30 PM90 °FSunny.17 mph43%29.80 "Hg10 mi
3:00 PM90 °FPassing clouds.15 mph49%29.83 "HgN/A
2:30 PM88 °FPassing clouds.15 mph55%29.83 "HgN/A
12:30 PM90 °FScattered clouds.15 mph52%29.92 "HgN/A
12:00 PM93 °FSunny.7 mph30%29.92 "Hg10 mi
11:30 AM91 °FSunny.12 mph30%29.95 "Hg10 mi
11:00 AM90 °FSunny.15 mph36%29.95 "Hg10 mi
10:30 AM90 °FPassing clouds.13 mph43%29.95 "HgN/A
10:00 AM88 °FPassing clouds.13 mph43%29.98 "HgN/A
9:30 AM86 °FPassing clouds.10 mph62%29.98 "HgN/A
9:00 AM84 °FPassing clouds.8 mph70%29.98 "HgN/A
8:30 AM82 °FScattered clouds.6 mph74%29.98 "HgN/A
8:00 AM81 °FSunny.8 mph79%29.95 "Hg10 mi
7:30 AM81 °FSunny.7 mph84%29.95 "Hg10 mi
7:00 AM79 °FSunny.7 mph89%29.95 "Hg10 mi
6:30 AM79 °FClear.6 mph89%29.92 "Hg10 mi
6:00 AM79 °FClear.5 mph89%29.92 "Hg10 mi
5:30 AM79 °FClear.3 mph89%29.92 "Hg10 mi
5:00 AM79 °FClear.6 mph89%29.92 "Hg10 mi
4:30 AM79 °FPassing clouds.6 mph89%29.92 "HgN/A
4:00 AM79 °FPassing clouds.9 mph89%29.92 "HgN/A
3:30 AM79 °FPassing clouds.6 mph89%29.92 "HgN/A
3:00 AM79 °FPassing clouds.7 mph89%29.89 "HgN/A
2:30 AM79 °FPassing clouds.9 mph94%29.89 "HgN/A
2:00 AM79 °FPassing clouds.7 mph89%29.92 "HgN/A
1:30 AM79 °FPassing clouds.7 mph94%29.92 "HgN/A
1:00 AM79 °FSprinkles. Passing clouds.3 mph89%29.92 "HgN/A
12:30 AM79 °FSprinkles. Passing clouds.8 mph89%29.92 "HgN/A
12:00 AM82 °FPassing clouds.8 mph74%29.92 "HgN/A
11:30 PM
Oct 19
84 °FPassing clouds.6 mph70%29.92 "HgN/A
11:00 PM84 °FPassing clouds.9 mph74%29.92 "HgN/A
Weather by CustomWeather, © 2014

See weather overviewHow to use our weather pages